Flag for Spain Weather past 2 weeks in Barcelona, Barcelona, Spain

Now
48 °F

Clear.


Feels Like: 45 °F
Forecast: 47 / 65 °F
Wind: 8 mph from North

Location: Barcelona Airport

Current Time: Mar 27, 2015 at 3:49:43 AM

Latest Report: Mar 27, 2015 at 3:30 AM


Visibility: 10 mi

Pressure: 30.01 "Hg

Humidity: 82%

Dew point: 43 °F

Location of BarcelonaLocation

Historic Weather in Barcelona — Graph

°F

Barcelona temperature yesterday

Maximum temperature yesterday: 59 °F (at 3:30 PM)
Minimum temperature yesterday: 43 °F (at 7:00 AM)
Average temperature yesterday: 52 °F

Past Weeks' High & Low Weather Summary

 TemperatureHumidityPressure
High64 °F (Mar 12, 11:00 AM)100% (Mar 21, 7:00 AM)30.18 "Hg (Mar 21, 7:00 AM)
Low39 °F (Mar 15, 3:30 AM)39% (Mar 26, 1:00 PM)29.53 "Hg (Mar 25, 4:30 AM)
Average54 °F76%29.97 "Hg
* Reported Mar 12 2:30 AM — Mar 27 2:30 AM, Barcelona, Weather by CustomWeather, © 2015

Note: Actual official high and low records may vary slightly from our data, if they occured in-between our weather recording intervals... More about our weather records

Advertising

Barcelona weather history for previous 24 hours

 ConditionsComfort  
Time TempWeatherWind HumidityBarometerVisibility
2:30 AM
Fri, Mar 27
48 °FPassing clouds.8 mph82%30.01 "HgN/A
2:00 AM50 °FPassing clouds.6 mph76%29.98 "HgN/A
1:30 AM50 °FPassing clouds.6 mph76%29.98 "HgN/A
1:00 AM50 °FPassing clouds.9 mph82%29.98 "HgN/A
12:30 AM52 °FPassing clouds.7 mph77%29.98 "HgN/A
12:00 AM54 °FPassing clouds.7 mph72%29.98 "HgN/A
11:30 PM
Thu, Mar 26
52 °FPassing clouds.6 mph82%29.98 "HgN/A
11:00 PM54 °FPassing clouds.5 mph77%29.95 "HgN/A
10:30 PM54 °FPassing clouds.8 mph77%29.95 "HgN/A
10:00 PM54 °FPassing clouds.9 mph77%29.95 "HgN/A
9:30 PM55 °FPassing clouds.13 mph72%29.95 "HgN/A
9:00 PM55 °FPassing clouds.17 mph72%29.95 "HgN/A
8:30 PM55 °FPassing clouds.16 mph77%29.92 "HgN/A
8:00 PM55 °FPassing clouds.12 mph72%29.92 "HgN/A
7:30 PM55 °FPassing clouds.13 mph72%29.92 "HgN/A
7:00 PM57 °FPassing clouds.9 mph63%29.89 "HgN/A
6:30 PM57 °FPassing clouds.12 mph63%29.89 "HgN/A
6:00 PM57 °FPassing clouds.15 mph63%29.89 "HgN/A
5:30 PM57 °FPassing clouds.14 mph63%29.89 "HgN/A
5:00 PM57 °FPassing clouds.15 mph63%29.89 "HgN/A
4:30 PM59 °FPassing clouds.15 mph55%29.89 "HgN/A
4:00 PM59 °FPassing clouds.17 mph51%29.89 "HgN/A
3:30 PM59 °FPassing clouds.17 mph45%29.89 "HgN/A
3:00 PM57 °FPassing clouds.17 mph48%29.89 "HgN/A
2:30 PM57 °FPassing clouds.17 mph48%29.89 "HgN/A
2:00 PM57 °FPassing clouds.17 mph44%29.89 "HgN/A
1:30 PM57 °FPassing clouds.18 mph48%29.89 "HgN/A
1:00 PM57 °FPassing clouds.15 mph39%29.89 "HgN/A
12:30 PM57 °FPassing clouds.10 mph41%29.92 "HgN/A
12:00 PM55 °FPassing clouds.8 mph44%29.92 "HgN/A
11:30 AM55 °FPassing clouds.7 mph41%29.92 "HgN/A
11:00 AM54 °FPassing clouds.9 mph47%29.92 "HgN/A
10:30 AM52 °FPassing clouds.12 mph47%29.92 "HgN/A
10:00 AM50 °FPassing clouds.12 mph50%29.89 "HgN/A
9:30 AM48 °FPassing clouds.13 mph54%29.89 "HgN/A
9:00 AM48 °FPassing clouds.12 mph58%29.89 "HgN/A
8:30 AM46 °FPassing clouds.13 mph57%29.89 "HgN/A
8:00 AM45 °FPartly sunny.13 mph61%29.86 "HgN/A
7:30 AM45 °FBroken clouds.12 mph61%29.86 "HgN/A
7:00 AM43 °FPartly sunny.10 mph61%29.86 "HgN/A
6:30 AM45 °FPassing clouds.10 mph61%29.83 "HgN/A
6:00 AM45 °FPassing clouds.15 mph61%29.83 "HgN/A
5:30 AM46 °FPassing clouds.13 mph57%29.83 "HgN/A
5:00 AM46 °FPassing clouds.14 mph57%29.80 "HgN/A
4:30 AM46 °FPassing clouds.14 mph53%29.80 "HgN/A
4:00 AM46 °FPassing clouds.13 mph66%29.80 "HgN/A
3:30 AM48 °FPassing clouds.7 mph71%29.77 "HgN/A
3:00 AM50 °FPassing clouds.7 mph88%29.77 "HgN/A
Weather by CustomWeather, © 2015

See weather overviewHow to use our weather pages